W1QWT-13 Weather Reports


Display with metric or nautical units.
time (UTC)temp
F
wind
direction
speed
MPH
gust
MPH
rain 1hr
in
rain 24hr
in
rain mn
in
humidity
%
barometer
mb
20260507190340 68 78 2.0 6.0 0.00 0.33 0.26 42 1004.8
20260507183240 68 75 0.0 7.0 0.00 0.33 0.26 42 1005.1
20260507180140 67 340 9.0 9.0 0.00 0.33 0.26 38 1005.3
20260507173041 65 15 2.0 10.0 0.00 0.33 0.26 43 1005.3
20260507145540 58 171 3.0 7.0 0.00 0.33 0.26 59 1006.9
20260507142440 56 310 0.0 8.0 0.00 0.33 0.26 61 1007.0
20260507114941 48 181 0.0 0.0 0.05 0.33 0.26 89 1007.0
20260507104741 47 303 1.0 4.0 0.02 0.28 0.21 88 1006.8
20260507101641 50 344 5.0 5.0 0.02 0.27 0.20 89 1006.8
20260507091441 52 2 2.0 6.0 0.12 0.25 0.18 90 1006.1
20260507081241 54 322 0.0 5.0 0.06 0.13 0.06 87 1006.0
20260507071041 56 347 1.0 5.0 0.00 0.07 0.00 90 1004.9
20260507063941 56 5 0.0 0.0 0.00 0.07 0.00 91 1005.1
20260507060841 56 215 0.0 3.0 0.00 0.07 0.00 92 1005.1
20260507050641 55 185 1.0 4.0 0.00 0.07 0.00 92 1005.6
20260507043541 56 195 1.0 4.0 0.00 0.07 0.11 91 1005.3
20260507040442 56 251 2.0 6.0 0.00 0.07 0.11 91 1005.4
20260507033342 56 182 2.0 8.0 0.00 0.07 0.11 92 1005.5
20260507030242 56 205 4.0 14.0 0.00 0.07 0.11 91 1005.2
20260507023142 56 227 3.0 9.0 0.00 0.07 0.11 91 1005.0
20260507020042 56 170 7.0 8.0 0.00 0.07 0.11 91 1005.4
20260507005842 56 208 6.0 8.0 0.02 0.07 0.11 91 1005.6
20260507002742 56 192 5.0 9.0 0.02 0.06 0.10 90 1005.7
20260506235642 57 201 6.0 9.0 0.02 0.05 0.09 90 1005.5
20260506232542 57 206 5.0 13.0 0.03 0.04 0.08 88 1005.8
20260506222342 58 149 2.0 6.0 0.01 0.01 0.05 85 1006.3
20260506215218 59 192 11.0 11.0 0.13 0.13 0.04 84 1004.2